Terug naar catalogus

SL-14 R/B

ActiefPO
NORAD 22970·ROCKET BODY·🇷🇺 Russia

Gelanceerd Jan 25, 1994 vanaf Plesetsk Cosmodrome

Loading…

Volgende Passages (komende 24 uur)

TLE

VersSource: Space-Track

Epoch: Sep 14, 2026, 06:33 UTC

1 22970U 94003B   26257.27345523  .00000180  00000-0  43647-3 0  9995
2 22970  82.5654  24.2789 0015746 346.6804  30.8147 13.17011757568711

Volg SL-14 R/B in realtime met AllMySat

Download on the App Store